Weather History for Manistique, MI

Change the Weather History Date:

Tuesday, May 1, 2012

  Actual Average Record
Temperature  
Mean Temperature 42 °F -  
Max Temperature 51 °F 54 °F 68 °F (2013)
Min Temperature 32 °F 34 °F 19 °F (1966)
Degree Days  
Heating Degree Days 24    
Moisture  
Dew Point 40 °F    
Average Humidity 82    
Maximum Humidity 93    
Minimum Humidity 71    
Precipitation  
Precipitation 0.00 in - - ()
Sea Level Pressure  
Sea Level Pressure 29.95 in    
Wind  
Wind Speed 4 mph (South)    
Max Wind Speed 13 mph    
Max Gust Speed 18 mph    
Visibility 8 miles    
Events Fog    
Averages and records for this station are not official NWS values.
T = Trace of Precipitation, MM = Missing Value Source: NWS Daily Summary

Daily Weather History Graph

Daily Weather History Graph

Search for Another Location

Airport:

Trip Planner

Search our weather history database for the weather conditions in past years. The results will help you decide how hot, cold, wet, or windy it might be!

Date:

Astronomy

May. 01, 2012 Rise Set
Actual Time 6:30 AM EDT 8:53 PM EDT
Civil Twilight 5:57 AM EDT 9:26 PM EDT
Nautical Twilight 5:16 AM EDT 10:08 PM EDT
Astronomical Twilight 4:29 AM EDT 10:55 PM EDT
Moon 3:41 PM EDT (5/1) 3:44 AM EDT (5/1)
Length of Visible Light 15h 28m
Length of Day
14h 22m
Waxing Gibbous, 73% of the Moon is Illuminated
May 1
Waxing Gibbous
May 5
Full
May 12
Last Quarter
May 20
New
May 28
First Quarter

Hourly Weather History & Observations

Time (EDT) Temp. Windchill Dew Point Humidity Pressure Visibility Wind Dir Wind Speed Gust Speed Precip Events Conditions
12:14 AM 42.8 °F - 37.4 °F 81% 29.92 in 10.0 mi Calm Calm - N/A   Overcast
12:35 AM 42.8 °F - 37.4 °F 81% 29.93 in 10.0 mi Calm Calm - N/A   Overcast
12:55 AM 42.8 °F - 37.4 °F 81% 29.93 in 10.0 mi Calm Calm - N/A   Overcast
1:14 AM 42.8 °F 41.1 °F 37.4 °F 81% 29.92 in 10.0 mi SSE 3.5 mph - N/A   Overcast
1:35 AM 42.8 °F - 37.4 °F 81% 29.93 in 10.0 mi Calm Calm - N/A   Overcast
1:54 AM 41.0 °F - 37.4 °F 87% 29.93 in 10.0 mi Calm Calm - N/A   Mostly Cloudy
2:14 AM 39.2 °F - 37.4 °F 93% 29.93 in 10.0 mi Calm Calm - N/A   Scattered Clouds
2:35 AM 37.4 °F - 35.6 °F 93% 29.92 in 5.0 mi Calm Calm - N/A   Clear
2:54 AM 37.4 °F - 35.6 °F 93% 29.92 in 1.0 mi Calm Calm - N/A   Mist
3:14 AM 35.6 °F - 33.8 °F 93% 29.93 in 0.8 mi Calm Calm - N/A   Mist
3:34 AM 33.8 °F - 30.2 °F 87% 29.92 in 2.5 mi Calm Calm - N/A   Clear
3:54 AM 33.8 °F - 32.0 °F 93% 29.92 in 3.0 mi Calm Calm - N/A   Scattered Clouds
4:15 AM 33.8 °F - 30.2 °F 87% 29.92 in 1.0 mi Calm Calm - N/A   Overcast
4:34 AM 33.8 °F - 30.2 °F 87% 29.93 in 0.5 mi Calm Calm - N/A Fog Fog
5:15 AM 33.8 °F - 30.2 °F 87% 29.94 in 5.0 mi Calm Calm - N/A   Scattered Clouds
5:34 AM 33.8 °F - 30.2 °F 87% 29.94 in 5.0 mi Calm Calm - N/A   Clear
5:55 AM 33.8 °F - 30.2 °F 87% 29.95 in 2.0 mi Calm Calm - N/A   Clear
6:14 AM 32.0 °F - 30.2 °F 93% 29.95 in 10.0 mi Calm Calm - N/A   Clear
6:34 AM 33.8 °F - 30.2 °F 87% 29.97 in 7.0 mi Calm Calm - N/A   Clear
6:55 AM 37.4 °F - 33.8 °F 87% 29.97 in 0.2 mi Calm Calm - N/A Fog Fog
7:14 AM 39.2 °F 35.9 °F 37.4 °F 93% 29.98 in 1.5 mi SSW 4.6 mph - N/A   Mist
7:34 AM 42.8 °F 39.3 °F 41.0 °F 93% 29.99 in 5.0 mi SSW 5.8 mph - N/A   Clear
7:55 AM 44.6 °F 41.4 °F 41.0 °F 87% 29.99 in 7.0 mi SSW 5.8 mph - N/A   Clear
8:34 AM 46.4 °F 42.9 °F 42.8 °F 87% 30.00 in 10.0 mi SSW 6.9 mph - N/A   Clear
8:55 AM 46.4 °F 42.9 °F 42.8 °F 87% 29.99 in 10.0 mi South 6.9 mph - N/A   Clear
9:14 AM 46.4 °F 42.9 °F 42.8 °F 87% 29.99 in 10.0 mi SSW 6.9 mph - N/A   Clear
9:35 AM 46.4 °F 42.4 °F 42.8 °F 87% 30.00 in 10.0 mi South 8.1 mph - N/A   Clear
10:14 AM 48.2 °F - 42.8 °F 82% 30.00 in 10.0 mi South 6.9 mph - N/A   Scattered Clouds
10:35 AM 50.0 °F - 42.8 °F 76% 30.00 in 10.0 mi South 9.2 mph - N/A   Clear
10:55 AM 50.0 °F - 42.8 °F 76% 29.99 in 10.0 mi South 9.2 mph - N/A   Clear
11:14 AM 50.0 °F - 42.8 °F 76% 29.99 in 10.0 mi South 9.2 mph - N/A   Clear
11:35 AM 50.0 °F - 42.8 °F 76% 30.01 in 10.0 mi South 9.2 mph - N/A   Clear
11:54 AM 51.8 °F - 42.8 °F 71% 30.01 in 10.0 mi South 9.2 mph - N/A   Clear
12:15 PM 50.0 °F - 42.8 °F 76% 30.01 in 10.0 mi South 10.4 mph - N/A   Mostly Cloudy
12:35 PM 48.2 °F - 42.8 °F 82% 30.01 in 10.0 mi South 9.2 mph - N/A   Overcast
12:54 PM 48.2 °F - 42.8 °F 82% 30.01 in 10.0 mi South 9.2 mph - N/A   Overcast
1:15 PM 48.2 °F - 42.8 °F 82% 30.00 in 10.0 mi South 11.5 mph 16.1 mph N/A   Overcast
1:34 PM 51.8 °F - 42.8 °F 71% 29.99 in 10.0 mi South 10.4 mph - N/A   Mostly Cloudy
1:54 PM 50.0 °F - 42.8 °F 76% 29.99 in 10.0 mi South 11.5 mph - N/A   Overcast
2:15 PM 51.8 °F - 42.8 °F 71% 29.99 in 10.0 mi South 12.7 mph 18.4 mph N/A   Overcast
2:34 PM 50.0 °F - 42.8 °F 76% 29.98 in 10.0 mi South 11.5 mph - N/A   Overcast
2:54 PM 51.8 °F - 42.8 °F 71% 29.99 in 10.0 mi South 12.7 mph - N/A   Mostly Cloudy
3:15 PM 51.8 °F - 42.8 °F 71% 29.99 in 10.0 mi South 11.5 mph - N/A   Overcast
3:34 PM 51.8 °F - 42.8 °F 71% 29.99 in 10.0 mi South 10.4 mph - N/A   Scattered Clouds
4:14 PM 51.8 °F - 42.8 °F 71% 29.99 in 10.0 mi South 9.2 mph 16.1 mph N/A   Clear
4:35 PM 51.8 °F - 42.8 °F 71% 29.98 in 10.0 mi SSW 10.4 mph - N/A   Clear
4:55 PM 51.8 °F - 42.8 °F 71% 29.97 in 10.0 mi South 11.5 mph 17.3 mph N/A   Clear
5:14 PM 51.8 °F - 42.8 °F 71% 29.96 in 10.0 mi South 10.4 mph 18.4 mph N/A   Clear
5:35 PM 51.8 °F - 42.8 °F 71% 29.96 in 10.0 mi SSW 10.4 mph - N/A   Clear
5:55 PM 51.8 °F - 42.8 °F 71% 29.94 in 10.0 mi South 10.4 mph 16.1 mph N/A   Clear
6:14 PM 51.8 °F - 42.8 °F 71% 29.93 in 10.0 mi South 8.1 mph - N/A   Clear
6:35 PM 51.8 °F - 42.8 °F 71% 29.92 in 10.0 mi South 8.1 mph - N/A   Clear
6:54 PM 50.0 °F - 42.8 °F 76% 29.92 in 10.0 mi South 9.2 mph - N/A   Clear
7:14 PM 50.0 °F - 42.8 °F 76% 29.91 in 10.0 mi South 8.1 mph - N/A   Clear
7:34 PM 50.0 °F - 42.8 °F 76% 29.90 in 10.0 mi South 5.8 mph - N/A   Clear
7:54 PM 48.2 °F - 42.8 °F 82% 29.90 in 10.0 mi SSE 4.6 mph - N/A   Clear
8:15 PM 46.4 °F 43.5 °F 42.8 °F 87% 29.90 in 10.0 mi SE 5.8 mph - N/A   Clear
8:34 PM 44.6 °F 41.4 °F 41.0 °F 87% 29.90 in 10.0 mi SE 5.8 mph - N/A   Clear
8:54 PM 44.6 °F 40.2 °F 41.0 °F 87% 29.90 in 7.0 mi SE 8.1 mph - N/A   Clear
9:15 PM 44.6 °F 39.7 °F 41.0 °F 87% 29.90 in 7.0 mi SE 9.2 mph - N/A   Clear
9:34 PM 44.6 °F 39.7 °F 41.0 °F 87% 29.90 in 10.0 mi SE 9.2 mph - N/A   Clear
9:54 PM 44.6 °F 40.7 °F 41.0 °F 87% 29.91 in 10.0 mi ESE 6.9 mph - N/A   Clear
10:15 PM 44.6 °F 40.7 °F 41.0 °F 87% 29.92 in 10.0 mi ESE 6.9 mph - N/A   Clear
10:34 PM 44.6 °F 40.2 °F 41.0 °F 87% 29.91 in 7.0 mi ESE 8.1 mph - N/A   Clear
10:55 PM 44.6 °F 40.7 °F 42.8 °F 93% 29.90 in 7.0 mi SE 6.9 mph - N/A   Clear
11:15 PM 44.6 °F 40.7 °F 42.8 °F 93% 29.89 in 10.0 mi ESE 6.9 mph - N/A   Clear
11:34 PM 44.6 °F - 41.0 °F 87% 29.89 in 7.0 mi Calm Calm - N/A   Clear
11:55 PM 44.6 °F - 41.0 °F 87% 29.90 in 7.0 mi Calm Calm - N/A   Clear